Starlink 2241

operational
NORAD ID: 48586 Int'l Des: 2021-041 Owner: SPXS Country: US Constellation: starlink
LEOCIRCULARSTARLINK_TYPE

Starlink 2241について

説明を読み込み中...

リアルタイム位置

3D地球を読み込み中...

次回通過

高度履歴

Altitude vs Time

uPlot chart will show altitude changes over time

軌道要素

1 48586U 21041AK 26061.04420364 -.00000677 00000-0 -26590-4 0 9995
2 48586 53.0554 175.9410 0001422 78.8500 281.2649 15.06369217263901
Epoch: Mar 2, 2026 • Age: 27 hours

現在のステータス

高度 550.8 km
速度 7.59 km/s
衛星直下点 43.70°N, 13.83°E
打ち上げ日 May 15, 2021
運用期間 4.7 years
タイプ internet

技術仕様

分類 Payload
質量 260.00 kg
乾燥質量 248.00 kg
総質量 260.00 kg
長さ 0.20 m
直径 2.80 m
スパン 9.00 m
形状 Box + pan
製造者 SPXS
バスタイプ Starlink
フェーズステータス In Orbit
所有者/国 SPXS/US

大規模コンステレーション

Loading constellations...